Wind_Speed
23 22 21 21 19 17 16 16 17 18 18 18 19 21 24 26 27 27 26 26 26 26 24 20 18 18 19 21 22 22 21 17 15 16 18 22 26 27 25 22 21 21 23 25 28 29 26 22 20 21 22 22 21 19 19 20 19 19 19 20 19 19 19 19 18 17 16 15 15
24 23 22 22 21 18 16 15 16 17 18 19 20 22 24 26 25 25 24 21 21 21 20 18 17 16 17 19 21 22 21 19 18 19 21 23 25 26 23 20 18 18 20 23 26 28 27 24 22 21 21 21 21 21 20 20 19 19 20 21 20 19 18 17 17 16 16 15 16
22 22 22 21 20 18 16 15 15 16 17 18 19 20 21 22 23 23 23 21 19 18 18 18 17 15 14 14 15 16 16 16 17 19 20 22 23 23 21 18 16 16 18 21 24 27 27 26 23 21 20 20 21 21 21 20 19 19 20 21 20 19 16 14 13 13 13 14 14
19 18 17 16 16 16 16 16 16 16 17 17 16 16 16 17 19 20 20 20 19 18 17 17 16 14 11 10 11 12 12 14 16 18 19 20 21 21 19 17 15 14 15 17 20 23 25 25 23 21 19 19 20 20 21 21 20 19 20 21 20 18 16 13 12 11 11 12 13
16 15 14 14 14 15 16 16 16 15 15 14 14 13 13 13 14 15 16 17 18 18 17 17 15 12 10 10 11 12 13 14 15 17 18 19 21 21 19 17 16 15 14 13 14 16 19 21 22 20 18 17 19 20 21 21 20 20 20 21 20 19 18 17 14 12 11 12 12
15 13 13 13 13 14 15 16 15 14 13 12 11 12 12 13 13 13 13 15 17 18 18 17 15 13 13 14 13 13 14 15 16 17 18 19 21 21 21 19 19 18 16 13 12 13 15 18 19 20 19 18 19 21 21 20 19 18 19 19 19 20 19 17 13 11 11 13 12
16 14 12 13 14 15 16 16 15 14 13 11 11 12 12 13 14 14 14 15 16 18 18 18 17 16 17 17 15 15 15 15 16 16 17 18 20 21 21 20 19 18 17 15 14 14 15 16 18 20 20 20 20 20 20 18 17 16 16 16 17 17 15 14 11 11 11 11 10
19 16 14 14 16 16 16 16 16 16 15 13 13 13 13 13 13 13 13 14 15 17 18 18 18 18 19 18 16 16 16 16 16 16 16 17 18 18 18 18 18 18 18 17 17 18 18 18 19 20 21 21 21 20 19 17 16 15 15 15 14 13 11 10 9 9 11 11 10
22 20 17 17 18 17 16 15 16 17 17 17 17 16 14 13 12 12 12 13 14 15 14 14 15 16 17 16 16 15 15 15 15 15 15 16 17 18 18 18 18 19 19 19 20 21 21 20 20 21 22 22 21 20 19 18 17 17 16 14 12 11 9 8 7 7 9 10 10
22 21 19 19 19 18 17 15 17 18 19 20 19 17 15 13 13 12 13 14 14 13 11 10 10 11 12 12 13 13 14 14 14 14 15 16 17 18 19 20 20 21 21 21 22 21 21 20 21 21 21 21 20 20 20 20 19 18 16 14 12 10 9 8 6 5 5 7 7
21 20 19 19 20 19 17 15 15 17 18 18 18 16 15 14 14 15 16 16 15 14 12 10 9 9 10 11 13 14 15 16 17 17 17 17 18 20 21 22 22 22 22 21 21 19 19 19 21 21 21 20 19 19 19 20 18 17 16 15 13 12 10 9 8 8 8 7 8
20 19 18 18 19 19 18 16 15 14 14 15 16 16 16 16 16 17 18 18 17 16 15 13 12 13 14 17 19 20 21 22 22 21 21 21 22 22 23 23 22 22 21 21 20 19 18 19 20 21 21 20 19 18 18 18 16 15 15 15 15 15 15 14 14 13 12 11 11
21 19 18 18 18 18 18 17 15 14 13 15 16 17 18 19 19 20 22 23 22 21 19 18 18 19 22 25 26 27 27 27 26 26 26 25 25 24 23 22 22 21 21 20 20 19 19 19 20 20 20 20 19 18 17 16 14 14 15 17 18 19 19 19 18 17 15 14 13
22 21 20 18 18 18 19 19 17 16 16 18 19 21 21 22 23 25 26 27 27 25 24 23 24 26 28 30 30 29 28 27 26 26 26 25 24 23 22 22 21 21 20 20 20 20 20 20 20 20 20 19 19 19 18 16 16 17 18 19 19 20 20 20 19 18 16 16 15
22 22 22 20 19 20 22 22 22 21 22 23 24 25 24 24 25 27 28 28 28 27 26 25 26 27 28 28 27 26 25 24 23 23 22 22 22 22 22 22 22 21 20 20 19 19 20 20 20 20 19 19 19 20 20 20 21 21 21 21 21 20 20 19 18 18 17 17 17
20 22 22 21 20 21 24 26 26 26 27 28 29 29 28 27 27 28 29 29 28 27 25 24 25 25 25 24 23 21 21 21 21 21 21 21 22 22 22 22 22 22 21 20 20 20 20 20 20 20 20 20 20 22 23 24 24 24 23 22 21 20 19 18 18 18 18 19 18
18 19 20 20 19 21 24 27 28 28 29 30 31 31 31 30 29 29 30 30 29 27 25 25 25 25 25 24 23 22 21 21 21 21 21 22 23 23 23 23 22 22 21 21 21 21 21 21 20 20 20 20 21 22 24 24 24 24 23 21 21 20 19 18 18 18 19 19 18
13 15 17 18 18 19 20 23 25 26 27 29 29 30 30 29 29 29 30 30 29 28 27 26 25 25 25 25 25 24 23 22 22 22 22 23 23 24 23 22 22 21 21 21 22 22 22 22 21 21 20 20 21 21 22 22 22 22 21 20 20 19 19 18 18 18 18 18 18
8 10 13 15 17 17 18 19 20 22 24 26 26 26 26 26 27 27 28 29 29 29 28 27 26 26 26 26 26 25 25 24 23 23 23 23 23 23 22 22 21 21 21 22 22 22 22 21 20 20 20 19 20 20 21 21 21 20 20 20 19 19 18 17 17 17 17 17 17
4 6 9 12 15 17 18 18 19 20 21 23 24 25 25 25 25 25 26 27 29 29 28 27 26 26 26 26 26 26 25 24 23 23 23 23 23 23 22 21 21 21 22 22 22 22 21 20 19 19 19 19 20 20 21 21 21 21 20 19 19 18 18 17 17 16 16 16 17
1 3 5 7 10 14 17 19 21 21 22 22 23 24 24 25 25 25 25 26 27 28 28 27 27 26 26 26 26 25 24 24 23 23 23 23 23 23 22 22 22 22 22 22 22 21 20 19 19 19 19 19 21 22 22 22 21 21 20 20 19 19 18 17 17 16 16 16 17
1 1 2 3 5 8 12 16 19 21 22 23 24 24 25 25 26 26 27 27 27 27 27 27 27 27 27 26 25 25 24 23 23 23 23 24 23 23 23 23 23 23 23 23 22 21 20 19 19 19 20 21 22 22 23 22 22 21 20 20 19 19 18 17 16 16 16 17 18
2 1 1 1 2 3 6 9 12 15 18 21 22 24 24 25 26 27 27 27 28 28 28 27 27 27 27 26 25 24 24 23 23 24 24 24 24 24 24 24 24 24 24 23 23 22 21 21 21 21 21 22 22 23 22 22 21 20 20 19 18 18 17 16 16 15 16 17 18
2 2 2 2 2 2 3 4 6 8 12 15 17 20 22 24 25 26 26 27 27 27 27 28 28 27 27 26 25 25 24 25 25 25 25 25 25 25 25 25 25 24 24 24 23 23 22 22 22 22 22 22 22 22 22 20 20 19 18 17 16 15 15 15 15 15 15 16 16
2 2 1 2 2 3 3 3 4 6 7 10 12 15 17 20 22 24 25 26 26 26 26 27 27 27 27 27 26 25 25 26 27 27 27 27 27 26 26 25 25 24 24 24 24 24 24 24 24 23 23 23 23 22 21 19 19 17 16 15 14 14 13 13 13 14 14 14 14
3 2 2 2 2 2 3 3 4 5 6 7 9 12 14 17 19 21 23 24 24 25 25 26 26 27 27 27 26 26 27 27 28 29 29 29 28 27 26 25 24 24 25 25 25 25 25 25 25 25 24 23 23 22 21 19 18 17 15 14 13 13 12 12 12 12 13 13 13
4 4 3 2 2 2 3 3 4 4 5 7 8 10 13 15 17 19 21 22 22 23 24 24 25 25 26 26 26 27 27 28 28 28 28 28 27 26 25 24 24 25 26 26 26 26 25 25 25 24 24 23 22 21 20 19 17 16 15 14 13 12 12 11 11 12 12 12 12
5 5 4 4 3 3 3 3 3 4 5 6 8 10 11 13 15 17 18 19 20 21 22 23 23 24 24 25 26 27 27 28 27 27 27 26 25 25 24 24 25 25 26 26 26 26 25 24 23 23 23 22 21 19 18 17 16 16 15 14 12 12 12 11 11 11 12 12 12
7 6 6 6 5 4 4 4 4 4 5 6 7 9 10 12 14 15 16 17 18 19 20 21 22 22 23 24 25 25 26 26 25 25 24 24 24 24 24 25 25 26 26 26 25 24 23 22 22 21 21 20 19 17 15 15 15 15 14 13 13 12 12 12 11 11 11 11 11
8 8 7 7 7 6 6 5 5 5 6 6 7 8 9 11 12 14 15 16 17 18 19 20 21 21 22 23 24 24 24 24 23 23 24 24 25 25 25 25 25 25 25 25 23 22 21 21 20 20 19 19 17 16 15 14 14 14 14 13 13 13 12 12 12 12 11 11 10
10 9 9 9 9 8 8 7 6 6 6 7 7 7 8 10 11 13 14 15 16 17 18 19 19 20 21 22 22 22 22 22 22 23 24 25 26 26 26 25 25 24 24 23 22 20 19 18 18 17 17 17 17 16 15 14 14 13 13 13 13 13 13 12 12 12 11 11 10
10 10 9 10 10 10 9 9 8 8 7 7 8 8 9 9 10 12 13 14 15 16 17 18 18 19 20 21 21 21 21 22 23 24 25 26 26 27 27 26 25 24 23 22 20 19 18 17 16 15 14 15 15 15 14 14 13 12 12 13 13 13 13 12 12 11 11 11 11
10 10 10 10 10 10 10 10 10 9 9 9 9 9 9 9 10 11 12 14 15 15 16 17 18 19 19 20 20 21 21 22 23 24 25 25 26 27 27 26 25 23 22 21 20 18 17 16 15 14 13 13 13 13 13 13 13 12 12 12 13 13 13 12 12 11 11 11 11
10 10 10 10 10 11 11 11 11 11 10 10 10 10 10 10 11 12 13 14 14 14 15 16 17 18 19 19 20 21 22 23 24 24 25 25 26 26 26 25 23 22 21 20 18 17 15 14 14 13 13 12 12 12 12 12 12 12 11 11 12 13 13 12 12 11 11 11 11
11 10 10 10 10 11 11 12 12 12 12 12 12 11 11 11 12 13 14 14 14 14 14 15 16 17 18 19 20 22 23 24 24 24 24 24 24 24 23 22 21 20 19 18 17 16 14 13 13 13 13 13 13 12 11 11 11 11 11 11 11 12 13 12 12 11 11 10 11
12 10 10 10 10 11 11 12 13 13 13 13 13 13 13 13 13 14 14 14 14 14 15 16 17 18 18 19 20 21 23 23 24 24 23 23 22 21 20 20 19 19 18 16 15 14 14 13 13 14 14 14 13 12 11 11 10 10 10 10 11 12 13 13 12 12 11 10 10
13 11 10 10 10 11 11 12 13 13 14 14 14 14 14 14 14 14 15 15 15 16 16 17 18 18 19 20 20 21 22 23 23 23 22 21 20 19 19 18 18 17 16 15 14 14 13 13 14 14 14 14 13 12 11 10 10 10 10 10 11 12 13 13 13 12 11 11 10
14 12 11 11 11 11 11 12 13 13 14 14 14 14 15 15 15 15 16 17 17 17 18 18 19 19 20 21 21 22 22 22 22 22 21 20 19 18 17 17 17 16 15 14 14 13 13 13 14 15 14 13 13 11 10 10 10 10 10 10 11 12 14 14 13 12 12 11 11
14 13 12 11 12 12 12 12 13 14 14 14 14 14 15 16 16 17 17 18 18 18 19 19 19 20 21 22 22 23 23 22 22 21 20 19 18 17 16 16 16 15 15 14 14 13 13 13 14 14 14 13 12 11 10 10 10 10 10 10 11 13 14 14 14 13 12 11 11
15 14 13 12 12 12 13 13 14 14 14 14 14 15 16 16 17 18 18 18 19 19 19 19 19 20 21 22 23 23 23 23 22 21 20 19 18 17 16 15 15 15 15 14 14 14 14 14 14 14 14 13 12 11 10 10 10 10 10 10 11 13 14 15 14 13 12 12 11
16 14 13 13 13 13 14 14 14 15 14 14 14 15 16 17 17 18 19 19 20 20 20 19 19 20 22 23 23 23 22 22 21 21 19 18 17 16 16 15 15 15 15 14 15 15 14 14 14 14 14 13 12 11 10 10 10 10 10 11 12 13 14 14 15 14 13 12 12
Wind_Direction
241 242 243 244 245 244 241 237 236 238 241 244 245 246 247 246 245 245 245 244 242 239 234 229 225 223 222 223 226 233 244 262 277 281 274 266 261 259 255 250 245 241 239 237 236 236 235 233 229 226 225 222 218 215 219 225 226 224 221 219 216 215 214 213 214 215 217 218 221
236 236 236 237 240 241 239 232 226 226 230 236 240 242 242 242 240 238 236 235 237 237 236 232 228 223 222 223 227 235 244 255 263 265 263 260 258 257 255 252 249 245 241 238 236 234 233 230 228 227 224 220 215 214 217 222 223 220 218 217 214 212 210 210 214 216 217 217 219
230 228 228 230 234 237 235 229 222 219 222 229 234 237 237 236 233 230 229 228 233 236 235 228 222 217 214 215 221 227 233 239 244 247 250 252 253 252 252 252 252 250 246 240 235 232 230 227 227 225 221 216 212 212 214 218 218 215 212 210 209 206 205 206 210 212 213 213 213
226 226 226 228 228 228 226 223 218 217 218 223 229 232 233 231 229 225 222 223 227 230 226 217 209 205 205 206 212 216 220 225 231 238 243 247 250 249 249 250 251 251 248 242 235 230 227 224 223 222 217 212 207 207 211 215 217 216 214 212 212 212 213 215 216 214 211 208 208
224 230 238 238 228 220 216 216 214 213 215 219 226 232 236 237 232 225 218 216 218 218 215 206 199 200 211 220 218 216 216 221 228 236 242 247 248 248 247 247 245 245 246 244 236 228 222 219 218 217 214 208 205 207 211 215 218 220 220 219 219 220 223 224 225 225 221 215 214
223 232 243 244 230 216 211 212 210 209 211 217 226 236 243 248 247 239 228 217 214 211 208 202 201 212 227 233 228 221 217 221 229 237 243 245 245 243 241 239 237 235 237 240 240 233 223 216 216 216 215 211 208 209 212 214 217 219 220 219 219 220 221 223 229 231 227 223 226
225 227 235 241 229 217 210 210 209 210 213 221 234 243 247 251 252 248 239 227 218 211 206 203 207 218 230 235 231 223 219 222 229 236 241 243 242 241 239 237 234 231 230 231 237 237 231 223 219 218 217 215 212 210 210 210 210 211 210 207 207 208 211 218 227 229 228 231 238
227 223 226 234 228 219 211 210 210 212 217 227 239 245 247 248 246 242 234 226 218 212 207 203 207 217 226 229 226 220 218 221 227 233 238 241 243 242 240 237 233 229 227 227 229 232 233 229 223 219 217 215 213 211 208 206 205 205 204 201 197 197 201 211 224 229 231 236 245
227 224 224 227 225 220 215 213 214 215 220 227 235 240 241 241 238 231 224 219 215 211 204 198 200 207 213 216 216 215 217 220 225 229 233 237 239 238 236 234 231 228 226 226 227 230 231 229 224 219 215 214 213 212 212 213 214 214 212 207 203 204 210 217 224 228 230 234 240
225 225 225 223 221 220 218 215 214 216 219 224 229 233 235 236 235 232 228 225 221 212 199 189 186 190 197 205 210 214 216 218 221 224 229 232 234 234 232 230 228 226 225 225 227 230 230 226 221 217 215 213 213 216 220 224 223 220 216 214 216 221 226 229 232 236 240 242 241
222 223 226 224 220 218 216 211 209 211 215 219 223 225 228 231 233 235 236 234 226 215 202 191 187 191 202 211 217 218 216 215 216 219 223 228 230 231 230 228 227 225 223 223 226 227 225 220 217 215 213 212 213 217 223 227 224 220 218 222 228 233 234 236 241 250 259 270 274
223 224 225 223 220 216 211 206 204 206 212 217 219 218 219 222 227 230 232 230 222 213 205 200 201 207 216 220 221 219 216 214 213 214 218 222 225 227 227 225 224 223 223 223 226 227 224 217 214 213 212 211 212 215 219 222 221 219 221 227 232 235 236 239 244 250 257 269 275
228 227 226 223 219 214 209 204 202 206 216 222 219 216 214 215 219 223 224 221 216 209 204 202 205 211 217 219 219 217 214 213 212 213 215 218 220 221 220 219 219 220 221 222 226 229 226 219 215 213 212 211 211 212 215 217 219 222 225 228 231 232 232 235 239 245 251 256 260
229 229 228 226 222 215 209 204 203 207 215 219 217 215 214 214 216 219 220 217 213 208 205 204 207 211 214 215 214 214 213 213 213 213 214 216 216 215 214 214 214 215 217 220 224 226 225 220 216 214 213 210 208 209 212 214 219 224 228 230 231 230 230 231 235 239 243 244 248
228 228 228 229 226 218 211 207 205 206 207 209 211 212 213 214 216 217 217 215 212 210 209 208 209 210 211 212 212 213 214 213 213 213 214 215 214 213 212 211 211 212 214 216 217 218 217 216 214 213 211 208 204 204 207 211 216 223 228 230 230 229 228 229 231 234 236 238 241
228 228 227 225 223 216 211 210 210 209 208 208 208 208 210 212 214 215 216 215 214 213 213 213 212 211 211 211 212 213 214 214 214 214 214 214 214 213 211 210 209 209 210 211 211 211 210 212 213 212 209 205 201 201 204 209 215 220 224 226 226 225 224 225 227 229 232 235 237
228 228 226 222 219 214 210 210 212 213 213 212 210 209 209 210 211 212 213 214 215 216 217 218 217 215 213 213 214 215 215 215 215 214 214 213 213 212 210 209 208 208 208 208 207 206 206 209 210 209 207 204 202 202 205 209 213 216 218 219 219 220 220 222 224 227 230 232 233
221 224 224 221 218 214 211 210 212 215 217 217 215 213 211 209 209 210 211 213 214 216 218 219 220 219 217 217 218 218 217 216 215 214 214 213 212 211 210 209 208 207 206 206 205 202 201 202 202 203 203 203 204 205 207 209 210 211 212 213 214 216 217 219 222 224 226 229 230
207 213 216 217 217 217 215 214 216 218 219 219 218 216 214 211 209 209 210 212 214 215 217 219 220 220 221 221 221 221 219 217 216 215 215 214 212 210 209 208 207 205 205 204 201 199 196 195 195 196 198 201 203 206 208 208 208 208 209 210 211 213 214 216 218 220 223 225 228
191 199 206 211 214 215 217 218 219 220 221 221 219 217 215 213 211 210 210 212 214 216 217 218 219 220 221 222 221 221 219 218 217 216 215 214 212 209 208 206 205 203 202 200 198 195 193 192 192 193 196 198 201 203 205 206 206 206 206 207 208 209 210 211 213 216 220 225 228
192 190 196 203 208 213 215 217 219 220 221 221 221 219 217 215 214 213 213 214 215 215 216 217 218 218 219 219 219 218 218 218 217 216 215 213 210 207 205 204 203 201 200 198 196 194 193 192 193 194 195 197 198 199 200 200 200 200 201 202 204 206 208 209 211 215 220 226 230
322 234 204 202 206 209 213 215 217 220 222 223 223 222 221 219 217 216 216 217 217 216 216 217 217 218 218 218 217 216 217 217 217 216 214 212 209 206 204 203 202 201 199 197 196 194 194 194 194 194 194 193 194 194 194 194 193 194 196 199 202 204 207 210 214 219 224 228 231
343 340 324 281 242 224 217 215 216 218 220 222 223 224 225 224 223 221 220 220 219 219 219 219 219 220 219 219 217 216 216 217 217 215 213 211 208 206 205 204 202 201 199 198 197 196 194 193 192 192 192 190 189 189 189 190 191 192 194 198 202 207 211 215 220 225 229 232 233
348 350 342 319 302 282 259 239 227 223 221 221 222 223 225 227 227 226 225 223 222 221 221 221 221 221 221 220 219 218 217 217 215 214 211 209 208 207 206 205 203 201 199 199 198 198 196 193 190 189 188 187 186 186 187 189 192 194 197 201 205 209 214 220 225 229 231 232 231
335 342 337 321 309 296 286 270 252 239 231 225 222 222 224 227 229 230 229 228 225 222 220 220 220 220 219 218 218 218 217 217 215 212 210 208 208 208 207 205 203 201 200 200 200 200 199 195 191 187 185 185 186 187 188 191 195 198 200 202 205 209 214 221 227 229 228 226 223
316 321 318 307 293 286 280 271 261 253 243 235 228 225 225 226 228 230 230 229 225 221 218 216 215 215 214 214 213 213 213 213 212 210 208 206 206 206 206 205 202 201 200 200 200 200 198 196 193 190 188 188 189 190 192 194 197 199 201 203 206 209 213 217 219 219 218 216 213
304 306 303 294 284 280 275 269 263 259 250 240 232 228 226 225 226 227 227 225 221 217 214 212 211 210 210 209 208 207 207 207 207 206 205 203 203 202 201 201 199 198 198 199 198 197 196 194 194 194 193 193 193 193 193 195 198 200 202 202 204 206 208 208 206 203 202 205 206
294 295 293 290 287 280 268 256 256 256 250 242 234 228 224 222 222 222 221 218 215 212 209 207 207 206 205 204 203 203 203 202 201 201 201 200 199 197 195 194 194 194 194 194 193 192 192 193 195 196 197 196 194 194 194 196 198 201 202 201 200 200 199 197 195 193 194 198 203
286 286 286 286 285 279 267 256 253 252 249 246 239 231 224 220 218 216 214 211 209 206 203 202 202 202 200 198 198 199 199 198 198 197 195 193 191 189 188 187 188 189 189 188 188 189 191 193 196 198 198 198 195 193 193 195 197 199 198 197 196 194 192 190 189 190 192 195 199
283 282 281 281 279 276 270 263 256 251 249 249 245 235 225 220 216 213 210 207 204 202 201 201 199 197 196 195 195 195 194 194 194 192 189 186 183 181 182 183 184 185 186 186 187 190 193 196 199 200 200 200 198 195 192 193 194 193 192 192 191 191 190 189 189 188 189 191 195
284 282 279 277 276 273 270 265 260 254 250 248 244 237 227 219 214 211 209 207 204 204 203 201 198 196 195 195 193 192 191 190 188 186 183 181 179 179 180 182 182 183 185 187 190 193 196 199 201 201 201 200 198 194 191 190 189 189 188 188 189 189 189 189 190 189 189 191 194
287 281 277 275 274 271 267 263 260 257 253 248 244 238 230 222 217 212 209 207 205 204 203 202 199 197 196 194 192 190 188 185 182 181 179 178 178 179 181 182 183 184 186 189 193 196 198 198 198 197 197 198 197 195 193 190 188 188 189 190 191 190 190 190 191 191 192 194 196
291 282 275 272 270 268 265 261 259 256 254 250 246 241 235 228 223 218 213 209 207 205 203 201 199 197 194 191 189 186 184 181 179 178 178 179 180 181 182 183 184 186 189 192 196 199 200 198 194 191 192 198 200 200 197 194 192 190 190 191 193 192 192 192 193 194 196 198 200
298 286 275 268 265 264 262 260 258 256 253 250 247 242 238 233 228 223 219 215 210 206 202 200 198 196 193 189 186 183 181 180 178 178 179 181 183 183 183 184 187 190 193 196 200 202 201 198 192 188 189 196 201 202 200 197 196 194 191 192 194 195 195 195 197 199 201 203 205
304 291 279 269 263 260 260 259 257 255 252 249 245 241 238 235 232 228 224 219 213 205 200 197 195 192 189 186 184 183 181 179 179 179 181 183 184 185 186 188 191 194 198 201 203 204 203 198 192 187 189 194 199 199 198 197 196 194 193 194 196 198 198 198 200 203 206 208 211
309 295 282 270 263 259 257 256 256 253 250 246 243 239 236 234 233 231 227 221 214 206 200 197 195 191 187 184 183 183 183 182 182 182 183 185 187 188 191 194 196 199 201 204 205 206 204 198 191 188 190 195 198 197 196 195 194 195 196 197 200 202 202 201 203 206 209 213 215
312 298 283 271 264 258 255 253 252 250 247 244 241 238 234 232 230 228 225 220 213 207 203 201 198 195 191 188 186 186 186 187 186 186 187 189 191 194 197 200 202 202 204 206 207 208 205 200 193 189 190 197 199 197 194 193 194 197 199 201 204 205 204 203 205 208 212 216 219
315 302 286 272 264 258 253 250 248 246 244 242 240 237 234 232 229 226 223 219 213 209 206 204 201 199 196 194 191 190 191 192 192 192 192 194 196 199 202 204 205 205 206 208 210 210 209 204 197 192 192 197 198 196 193 193 196 200 203 205 208 208 207 205 206 209 213 218 221
316 305 290 275 265 258 253 249 246 244 243 241 239 237 235 231 229 226 223 220 216 213 210 207 204 203 201 199 197 195 195 197 198 199 199 200 202 204 206 207 209 210 210 212 214 215 213 209 202 197 196 199 199 197 196 197 200 203 206 208 211 210 208 206 208 211 214 219 222
317 307 294 280 268 260 253 249 246 244 243 240 237 235 233 231 229 226 223 219 217 215 213 211 208 206 205 203 202 200 200 201 203 204 205 206 207 208 209 212 214 216 217 219 220 220 219 215 208 202 200 203 201 200 200 201 202 204 207 209 210 209 208 207 209 212 215 219 221
318 309 298 285 272 262 255 250 248 246 244 241 238 236 235 232 229 225 222 219 217 215 213 211 209 208 207 206 205 204 203 203 205 207 208 209 210 212 214 217 220 222 223 224 225 225 224 221 214 206 203 205 203 202 203 204 204 205 207 210 210 208 207 207 210 213 216 219 220
Height
767 768 768 767 767 766 766 766 765 766 766 768 769 772 774 775 776 777 778 779 780 780 779 778 777 777 779 780 782 783 783 782 782 785 790 794 797 797 797 795 794 793 793 794 796 798 799 800 800 799 799 799 800 801 802 803 804 804 805 805 806 807 807 808 808 809 809 810 810
766 767 767 767 767 767 767 767 767 768 769 770 772 773 774 775 776 777 778 778 778 778 777 775 775 775 776 778 779 779 780 780 783 787 792 795 797 797 796 794 792 791 792 794 795 797 798 798 798 798 797 797 798 799 800 801 802 803 803 804 804 805 806 806 807 807 808 809 809
766 766 767 766 766 767 767 768 768 768 769 771 772 774 774 774 775 776 776 776 776 776 776 775 774 774 775 776 777 778 779 782 786 790 793 795 797 796 794 792 791 790 791 793 794 795 796 797 797 796 796 796 796 797 798 799 801 802 802 803 803 804 804 805 805 806 807 807 808
765 766 766 766 766 767 768 768 768 769 769 771 772 773 774 774 774 774 774 774 775 775 775 775 774 774 774 775 777 779 781 784 788 791 793 794 795 795 794 792 790 790 792 793 794 794 794 795 795 795 795 795 795 795 796 797 799 800 801 801 801 802 803 804 806 806 806 806 807
765 765 766 767 767 767 767 768 768 768 769 770 772 773 773 774 774 773 773 773 773 774 774 774 774 774 774 776 778 780 782 785 788 790 792 793 793 793 793 792 791 791 792 793 793 793 793 794 794 794 794 794 794 794 794 795 797 799 799 799 800 801 803 805 806 806 805 805 805
764 764 766 767 767 768 767 767 768 768 769 770 771 772 773 773 773 773 772 772 772 773 773 773 773 773 774 776 778 780 782 785 787 789 790 791 791 792 791 791 791 791 791 792 793 792 792 792 792 793 793 793 793 793 793 794 796 797 798 798 799 801 804 805 805 805 805 806 805
762 763 764 766 767 767 767 766 766 767 767 769 770 771 772 772 772 772 772 772 772 772 772 772 771 772 774 775 778 780 782 784 785 787 788 789 789 790 790 789 789 789 789 790 791 791 791 791 791 791 791 791 791 791 792 793 794 795 796 797 798 800 802 804 804 804 804 804 804
761 762 763 765 766 766 766 765 765 765 766 767 769 770 771 771 772 772 772 772 772 771 771 770 770 771 772 774 777 779 781 783 784 785 787 787 788 788 788 788 788 788 788 788 789 789 789 789 789 789 789 789 789 790 791 792 793 794 795 796 797 799 800 801 802 802 802 802 803
760 761 762 764 765 765 764 764 763 764 765 766 769 770 770 771 771 772 772 771 771 771 771 770 769 770 772 774 777 779 780 782 783 784 785 785 786 786 786 786 786 785 785 786 786 787 787 788 787 787 787 787 788 789 789 791 792 793 795 796 796 797 798 799 799 800 800 801 802
759 760 761 762 763 763 763 762 762 763 764 766 767 769 769 770 771 771 771 771 771 771 771 770 770 771 773 775 777 779 779 780 781 782 783 784 784 784 784 784 784 783 783 783 784 784 785 785 785 785 785 785 786 787 789 790 791 792 793 794 794 795 796 796 797 798 799 800 800
759 759 760 761 761 761 761 761 761 762 764 765 766 767 769 769 770 770 770 770 770 771 771 770 771 772 774 776 777 778 778 779 779 780 781 781 781 781 781 781 781 781 781 781 782 783 783 784 784 784 784 784 785 786 787 789 790 791 791 792 793 794 794 794 795 796 797 798 799
758 758 759 760 760 760 760 760 761 762 763 764 765 766 767 768 769 769 769 769 769 769 770 770 771 773 774 775 776 776 776 776 777 777 778 778 779 779 779 778 778 779 779 779 780 781 782 782 782 782 782 783 784 784 786 787 789 789 790 791 792 792 793 793 794 795 796 797 798
757 757 758 759 759 759 759 759 760 761 762 763 764 764 765 766 767 767 767 767 767 767 767 768 769 771 772 772 773 773 773 773 773 774 774 774 775 775 775 776 776 777 777 777 778 779 780 780 780 781 781 781 782 783 784 786 787 788 789 790 791 792 792 793 794 795 796 797 798
755 755 757 758 759 759 759 759 759 760 761 761 762 763 763 764 765 765 765 765 765 765 765 765 766 766 767 768 769 770 771 771 772 772 772 772 773 773 774 774 774 775 775 776 776 777 779 779 779 780 780 780 780 782 783 784 786 787 788 789 790 790 791 792 793 794 795 796 797
754 754 754 755 757 757 757 757 757 757 758 758 759 760 761 762 763 763 764 764 764 764 764 765 765 765 766 767 768 769 770 771 771 771 772 772 773 773 773 773 773 774 774 775 775 776 777 778 778 779 779 779 779 781 783 784 785 786 787 788 789 789 790 791 792 793 794 794 795
753 752 752 753 754 755 755 755 755 755 755 755 756 757 758 759 760 761 762 762 763 764 764 764 764 765 765 767 768 769 769 770 770 771 771 772 772 772 772 772 772 772 773 774 774 775 776 776 777 778 778 779 779 780 781 783 784 784 785 786 787 788 789 789 790 791 792 793 793
752 752 751 751 752 753 754 754 754 753 753 753 753 754 754 755 757 758 759 760 761 762 763 763 763 764 764 765 766 767 768 769 769 770 770 771 771 771 771 771 771 771 772 773 774 774 775 775 776 777 777 778 778 779 780 781 782 783 784 785 786 786 787 788 789 789 790 790 791
751 751 751 751 751 752 752 752 753 753 753 753 753 753 753 753 754 755 756 757 759 760 761 761 762 763 763 764 764 765 766 767 768 768 769 769 769 770 770 770 770 770 771 772 773 773 774 774 775 775 776 776 777 778 779 780 781 782 783 784 784 785 785 786 787 787 788 789 789
750 750 750 750 750 751 752 752 752 752 753 753 753 753 753 753 753 754 754 755 757 758 759 760 761 761 762 763 763 764 765 765 766 767 768 768 769 769 769 769 769 769 770 771 772 772 773 773 774 774 775 776 777 778 779 780 781 781 782 783 784 784 784 784 785 786 786 787 788
750 749 749 750 750 750 751 751 752 752 752 752 752 752 753 753 753 753 754 754 755 756 757 758 759 760 760 761 762 762 763 764 765 765 766 767 767 768 768 768 768 769 769 770 771 771 772 772 773 773 774 775 776 777 778 779 780 780 781 782 783 783 783 783 784 784 785 785 786
750 749 749 749 749 749 750 750 750 751 751 751 751 751 751 752 752 752 752 753 753 754 755 756 757 758 759 759 760 761 762 762 763 764 765 765 766 766 766 767 767 767 768 769 770 770 771 771 772 772 773 774 775 776 777 778 779 779 780 781 782 782 782 782 783 783 784 784 785
750 749 749 749 749 749 749 749 749 749 750 750 750 750 750 750 750 751 751 752 752 753 754 754 755 756 757 757 758 759 760 761 762 763 763 764 764 765 765 766 766 766 767 768 768 769 769 770 770 771 772 773 774 775 776 777 778 779 780 780 781 781 781 781 782 782 783 784 785
750 749 749 749 749 749 749 749 749 749 749 749 749 749 749 749 749 749 750 750 751 752 752 753 754 754 755 756 756 757 759 759 760 761 762 762 763 764 764 764 765 765 766 766 767 768 768 769 769 770 771 771 773 774 775 776 777 778 779 779 780 780 780 780 780 781 782 783 784
749 749 749 749 748 748 748 748 748 748 748 748 748 748 748 748 748 748 749 749 750 750 751 752 752 753 754 754 755 756 757 758 759 759 760 761 762 762 763 764 764 764 765 765 766 766 767 768 768 769 770 771 772 773 774 775 776 777 778 779 779 779 779 779 779 780 781 783 784
748 748 748 748 748 747 747 747 747 746 746 746 746 746 747 747 747 747 748 748 749 749 750 750 751 751 752 753 754 754 755 756 756 757 758 759 760 760 761 762 763 764 764 764 765 765 766 766 767 768 769 770 771 772 774 774 775 776 777 777 778 778 778 778 778 779 781 782 783
748 747 747 747 747 747 746 746 746 746 746 746 746 746 746 746 746 746 746 747 747 748 748 749 749 749 750 751 752 753 753 754 754 755 756 756 758 759 760 761 762 763 763 764 764 765 765 766 766 767 768 769 770 771 772 773 774 774 775 776 776 776 776 777 777 779 780 781 781
747 747 746 746 746 746 746 745 745 745 745 745 745 745 745 745 746 746 746 746 746 746 747 747 747 748 749 749 750 751 751 752 753 753 754 755 756 757 759 760 761 762 762 763 764 764 765 765 766 766 767 768 769 770 771 771 772 773 773 774 774 775 775 776 777 778 779 780 780
747 746 746 746 745 745 745 745 745 744 744 744 744 745 745 745 745 745 745 745 745 746 746 746 746 747 747 748 749 749 750 750 751 752 753 754 755 756 758 759 760 761 761 762 763 764 764 765 766 766 767 768 769 769 769 769 770 771 772 772 773 774 774 775 776 777 778 779 779
746 746 745 745 745 745 744 744 744 744 744 744 744 744 744 745 745 745 745 745 745 745 745 745 745 746 747 747 748 749 749 749 750 751 752 753 754 756 757 758 759 760 761 762 763 764 764 765 765 766 767 767 768 768 768 768 769 769 770 771 772 773 774 775 776 776 777 778 778
746 745 745 745 745 744 744 744 744 744 744 744 744 744 744 744 744 744 745 745 745 744 744 744 745 745 746 747 747 748 749 749 749 750 751 752 754 755 756 757 758 759 760 761 762 763 764 764 765 765 766 766 767 767 767 767 768 769 769 770 771 772 773 774 774 775 776 777 778
746 745 745 745 744 744 744 744 744 744 744 744 744 743 744 744 744 744 744 744 744 744 744 744 745 745 746 746 747 747 748 748 749 750 751 752 753 754 755 756 758 759 760 761 761 762 763 763 764 764 765 765 765 765 766 766 767 768 769 770 771 772 772 773 774 774 775 776 777
746 745 745 745 744 744 744 744 744 743 743 743 743 743 743 743 743 743 743 743 744 744 744 744 745 745 746 746 746 747 747 748 748 749 750 751 752 753 754 755 757 758 759 760 760 761 762 762 763 763 764 764 764 764 765 766 767 768 769 769 770 771 771 772 773 773 774 775 775
746 745 745 744 744 744 744 743 743 743 743 743 743 742 742 742 742 742 742 742 743 743 743 744 744 745 745 745 746 746 747 747 748 749 750 751 752 752 754 755 756 757 758 759 759 760 760 761 762 762 763 763 763 764 764 765 766 767 768 769 769 769 770 771 771 772 773 774 774
745 745 745 744 744 744 743 743 743 743 742 742 742 742 742 742 741 741 741 741 742 742 743 743 744 744 744 745 745 746 746 747 748 749 750 750 751 752 753 754 755 756 757 757 758 759 759 760 761 761 762 762 762 763 764 764 765 766 767 767 768 769 769 769 770 771 772 772 773
746 745 744 744 744 744 743 743 742 742 742 742 742 741 741 741 741 741 741 741 741 742 742 743 743 744 744 744 745 745 746 747 748 749 749 750 751 752 753 753 754 755 755 756 757 758 758 759 760 760 761 761 762 762 763 764 764 765 766 766 767 767 768 769 769 770 770 771 772
746 745 744 744 744 743 743 742 742 742 742 742 741 741 741 740 740 740 740 741 741 741 741 742 742 743 744 744 745 745 746 746 747 748 749 749 750 751 751 752 753 754 754 755 756 757 757 758 759 759 760 760 761 762 762 763 764 764 764 765 765 766 767 767 768 769 769 770 771
746 745 744 744 744 743 743 742 742 742 742 741 741 741 740 740 740 740 740 740 740 741 741 741 742 742 743 743 744 745 745 746 747 747 748 749 749 750 750 751 752 753 753 754 755 755 756 757 758 759 759 760 760 761 761 762 762 763 763 764 764 765 766 766 767 768 768 769 769
746 745 744 744 743 743 743 742 742 741 741 741 740 740 740 740 740 740 740 740 740 740 740 741 741 742 742 743 743 744 744 745 746 746 747 748 749 749 749 750 751 751 752 753 754 754 755 756 757 758 758 759 759 760 760 761 761 762 762 763 764 764 764 765 766 767 767 768 769
745 744 744 743 743 743 742 742 741 741 741 740 740 740 739 739 739 739 739 739 740 740 740 740 740 741 742 742 743 743 744 744 745 746 746 747 748 748 749 749 750 750 751 752 753 753 754 755 756 757 757 758 758 759 759 760 760 761 761 762 762 763 764 764 765 766 766 767 768
745 744 743 743 742 742 742 741 741 740 740 740 740 739 739 739 739 739 739 739 739 739 739 740 740 740 741 741 742 742 743 744 744 745 746 746 747 747 748 748 749 749 750 751 751 752 753 754 755 755 756 757 758 758 759 759 759 760 760 761 761 762 763 764 764 765 765 766 767
744 743 742 742 742 741 741 741 740 740 740 739 739 739 739 738 738 738 739 739 739 739 739 739 739 740 740 741 741 742 742 743 744 744 745 745 746 746 747 748 748 749 749 750 750 751 752 753 754 754 755 756 757 757 758 758 759 759 759 760 760 761 762 763 763 764 764 765 766